Starlink 4778

operational
NORAD ID: 53836 Int'l Des: 2022-114 Owner: SPXS Country: US Constellation: starlink
LEOCIRCULAR

Starlink 4778について

説明を読み込み中...

リアルタイム位置

3D地球を読み込み中...

次回通過

高度履歴

Altitude vs Time

uPlot chart will show altitude changes over time

軌道要素

1 53836U 22114U 25257.98762184 -.00000272 00000-0 10111-5 0 9992
2 53836 53.2191 3.0828 0001289 94.1959 265.9181 15.08834375166443
Epoch: Sep 14, 2025 • Age: 20 hours

現在のステータス

高度 554.6 km
速度 7.58 km/s
衛星直下点 -42.27°S, 70.57°W
打ち上げ日 Sep 19, 2022
運用期間 2.9 years
タイプ internet

技術仕様

分類 Payload
質量 305.00 kg
乾燥質量 290.00 kg
総質量 305.00 kg
長さ 0.20 m
直径 2.80 m
スパン 9.00 m
形状 Box + pan
製造者 SPXS
バスタイプ Starlink
フェーズステータス In Orbit
所有者/国 SPXS/US

大規模コンステレーション

Loading constellations...